Item Display Status Serial CT Sensor

Mooring Depth: 1 m

 

Deployed Sensor

  • Serial Number: 12506
  • NDBC Property Number: 38945
  • Start Date: 4/17/2020 (11:11:26 Z)
  • End Date: Currently Active
Water Temperature [°C]     6 entries per hour
Showing data from 6/23/2021 (08:00:00 Z) to 6/22/2021 (00:00:01 Z)
Previous Next [ Day | 3-Days | 7-Days ]
First Last
Prev [ Day | 3-Days | 7-Days ] Next
First Last

Start Time:     :
End Time:     :     
Time (in GMT) :00 :50 :40 :30 :20 :10
Previous Next [ Day | 3-Days | 7-Days ]
First Last
Prev [ Day | 3-Days | 7-Days ] Next
First Last


123 => good data
MM => data is determined as missing
-- => data not received/configured
Back to Top Back to Top
6/23/2021 08:00 to 7:10 24.268 24.274 24.313 24.314 24.306 24.300
6/23/2021 07:00 to 6:10 24.312 24.320 24.329 24.343 24.351 24.363
6/23/2021 06:00 to 5:10 24.369 24.398 24.414 24.400 24.376 24.246
6/23/2021 05:00 to 4:10 24.327 24.368 24.405 24.430 24.461 24.448
6/23/2021 04:00 to 3:10 24.471 24.477 24.510 24.533 24.473 24.558
6/23/2021 03:00 to 2:10 24.572 24.559 24.582 24.589 24.627 24.572
6/23/2021 02:00 to 1:10 24.594 24.586 24.593 24.611 24.649 24.687
6/23/2021 01:00 to 0:10 24.652 24.665 24.681 24.697 24.706 24.756
6/23/2021 00:00 to 23:10 24.775 24.764 24.776 24.813 24.866 24.826
6/22/2021 23:00 to 22:10 24.798 24.783 24.749 24.807 24.813 24.864
6/22/2021 22:00 to 21:10 24.840 24.839 24.904 24.867 24.883 24.864
6/22/2021 21:00 to 20:10 24.882 24.852 24.804 24.789 24.778 24.709
6/22/2021 20:00 to 19:10 24.743 24.669 24.733 24.698 24.694 24.717
6/22/2021 19:00 to 18:10 24.709 24.722 24.757 24.742 24.784 24.769
6/22/2021 18:00 to 17:10 24.772 24.753 24.756 24.761 24.765 24.782
6/22/2021 17:00 to 16:10 24.794 24.791 24.789 24.810 24.770 24.754
6/22/2021 16:00 to 15:10 24.721 24.693 24.683 24.694 24.691 24.716
6/22/2021 15:00 to 14:10 24.726 24.751 24.762 24.749 24.785 24.787
6/22/2021 14:00 to 13:10 24.779 24.775 24.775 24.791 24.808 24.825
6/22/2021 13:00 to 12:10 24.852 24.862 24.864 24.858 24.821 24.818
6/22/2021 12:00 to 11:10 24.840 24.858 24.877 24.900 24.913 24.908
6/22/2021 11:00 to 10:10 24.908 24.917 24.932 24.943 24.922 24.917
6/22/2021 10:00 to 9:10 24.949 24.945 24.951 24.961 24.950 24.927
6/22/2021 09:00 to 8:10 24.919 24.927 24.934 24.948 24.967 24.989
6/22/2021 08:00 to 7:10 24.983 25.017 25.047 25.063 25.082 25.064
6/22/2021 07:00 to 6:10 25.068 25.089 25.068 25.068 25.091 25.147
6/22/2021 06:00 to 5:10 25.163 25.161 25.173 25.157 25.173 25.205
6/22/2021 05:00 to 4:10 25.183 25.211 25.213 25.243 25.273 25.277
6/22/2021 04:00 to 3:10 25.260 25.237 25.247 25.244 25.223 25.231
6/22/2021 03:00 to 2:10 25.263 25.262 25.299 25.303 25.324 25.329
6/22/2021 02:00 to 1:10 25.273 25.240 25.243 25.277 25.340 25.222
6/22/2021 01:00 to 0:10 25.244 25.260 25.257 25.268 25.328 25.196

 

 

 

Conductivity [S/m]     6 entries per hour
Showing data from 10/28/2020 (14:30:00 Z) to 10/27/2020 (00:00:01 Z)
Previous Next [ Day | 3-Days | 7-Days ]
First Last
Prev [ Day | 3-Days | 7-Days ] Next
First Last

Start Time:     :
End Time:     :     
Time (in GMT) :00 :50 :40 :30 :20 :10
Previous Next [ Day | 3-Days | 7-Days ]
First Last
Prev [ Day | 3-Days | 7-Days ] Next
First Last


123 => good data
MM => data is determined as missing
-- => data not received/configured
Back to Top Back to Top
10/28/2020 15:00 to 14:10 -- -- -- 4.74838 4.74990 4.75011
10/28/2020 14:00 to 13:10 4.75255 4.76042 4.76287 4.76158 4.76194 4.76222
10/28/2020 13:00 to 12:10 4.76330 4.76231 4.76098 4.75779 4.75338 4.75106
10/28/2020 12:00 to 11:10 4.74920 4.74767 4.74683 4.74744 4.74711 4.74732
10/28/2020 11:00 to 10:10 4.74730 4.74406 4.74070 4.74200 4.74256 4.73806
10/28/2020 10:00 to 9:10 4.73554 4.73161 4.72885 4.70283 4.70102 4.69901
10/28/2020 09:00 to 8:10 4.69823 4.70018 4.70057 4.69997 4.69963 4.69950
10/28/2020 08:00 to 7:10 4.70041 4.70034 4.70103 4.70166 4.70190 4.70015
10/28/2020 07:00 to 6:10 4.70021 4.70049 4.69857 4.69969 4.70086 4.70028
10/28/2020 06:00 to 5:10 4.70232 4.70229 4.70166 4.70090 4.70172 4.70322
10/28/2020 05:00 to 4:10 -- 4.70463 4.70425 4.70462 4.70331 4.70331
10/28/2020 04:00 to 3:10 4.70415 4.69852 4.70135 4.70177 4.70173 4.70207
10/28/2020 03:00 to 2:10 4.69974 4.70467 4.70131 4.70352 4.70280 4.70178
10/28/2020 02:00 to 1:10 4.70042 4.70110 4.70331 4.70413 4.70298 4.70069
10/28/2020 01:00 to 0:10 4.70210 4.70048 4.70237 4.70325 4.70202 4.70383
10/28/2020 00:00 to 23:10 4.70559 4.70588 4.70688 4.70983 4.71054 4.71245
10/27/2020 23:00 to 22:10 4.72189 4.72337 4.72225 4.72527 4.72348 4.72046
10/27/2020 22:00 to 21:10 4.72036 4.72177 4.72595 4.72442 4.73242 4.74773
10/27/2020 21:00 to 20:10 4.75840 4.76289 4.75796 4.75467 4.75966 4.75757
10/27/2020 20:00 to 19:10 4.75560 4.74114 4.72718 4.72627 4.72262 4.71783
10/27/2020 19:00 to 18:10 4.71178 4.71383 4.72016 4.73247 4.75332 4.75683
10/27/2020 18:00 to 17:10 4.75283 4.75779 4.75285 4.74494 4.73803 4.73946
10/27/2020 17:00 to 16:10 4.73402 4.72009 4.71762 4.71290 4.71000 4.70660
10/27/2020 16:00 to 15:10 4.70272 4.69922 4.69557 4.69382 4.69030 4.68713
10/27/2020 15:00 to 14:10 4.67883 4.67947 4.67741 4.67549 4.67168 4.66910
10/27/2020 14:00 to 13:10 4.66739 4.66612 4.66581 4.66400 4.66376 4.66350
10/27/2020 13:00 to 12:10 4.66364 4.66394 4.66428 4.66436 4.66445 4.66492
10/27/2020 12:00 to 11:10 4.66424 4.66305 4.66421 4.66358 4.66373 4.66410
10/27/2020 11:00 to 10:10 4.66343 4.66340 4.66379 4.66523 4.66488 4.66466
10/27/2020 10:00 to 9:10 4.66647 4.66565 4.66513 4.66330 4.66285 4.66253
10/27/2020 09:00 to 8:10 4.66222 4.66282 4.66305 4.66400 4.66620 4.66700
10/27/2020 08:00 to 7:10 4.66705 4.66975 4.67083 4.67162 4.67160 4.67065
10/27/2020 07:00 to 6:10 4.67122 4.67180 4.67187 4.67038 4.66602 4.66806
10/27/2020 06:00 to 5:10 4.66316 4.66249 4.66475 4.66652 4.66767 4.66940
10/27/2020 05:00 to 4:10 4.67026 4.67106 4.67185 4.67185 4.67335 4.67435
10/27/2020 04:00 to 3:10 4.67408 4.67268 4.67274 4.67360 4.67176 4.67047
10/27/2020 03:00 to 2:10 4.66897 4.66999 4.67193 4.67182 4.66834 4.67059
10/27/2020 02:00 to 1:10 4.66652 4.67176 4.66971 4.67253 4.67493 4.67731
10/27/2020 01:00 to 0:10 4.67872 4.68124 4.67983 4.68098 4.68183 4.68135

 

 

 

Salinity [psu]     6 entries per hour
Showing data from 10/28/2020 (14:30:00 Z) to 10/27/2020 (00:00:01 Z)
Previous Next [ Day | 3-Days | 7-Days ]
First Last
Prev [ Day | 3-Days | 7-Days ] Next
First Last

Start Time:     :
End Time:     :     
Time (in GMT) :00 :50 :40 :30 :20 :10
Previous Next [ Day | 3-Days | 7-Days ]
First Last
Prev [ Day | 3-Days | 7-Days ] Next
First Last


123 => good data
MM => data is determined as missing
-- => data not received/configured
Back to Top Back to Top
10/28/2020 15:00 to 14:10 -- -- -- 34.65 34.65 34.65
10/28/2020 14:00 to 13:10 34.65 34.64 34.65 34.65 34.64 34.64
10/28/2020 13:00 to 12:10 34.65 34.65 34.65 34.65 34.65 34.65
10/28/2020 12:00 to 11:10 34.65 34.65 34.65 34.65 34.66 34.66
10/28/2020 11:00 to 10:10 34.66 34.66 34.66 34.66 34.66 34.66
10/28/2020 10:00 to 9:10 34.67 34.66 34.67 34.65 34.65 34.65
10/28/2020 09:00 to 8:10 34.65 34.65 34.65 34.65 34.65 34.65
10/28/2020 08:00 to 7:10 34.65 34.65 34.65 34.65 34.65 34.65
10/28/2020 07:00 to 6:10 34.65 34.65 34.65 34.65 34.65 34.65
10/28/2020 06:00 to 5:10 34.65 34.65 34.65 34.65 34.66 34.65
10/28/2020 05:00 to 4:10 -- 34.65 34.66 34.65 34.65 34.65
10/28/2020 04:00 to 3:10 34.66 34.65 34.65 34.65 34.65 34.65
10/28/2020 03:00 to 2:10 34.65 34.65 34.65 34.65 34.65 34.65
10/28/2020 02:00 to 1:10 34.65 34.66 34.65 34.66 34.65 34.65
10/28/2020 01:00 to 0:10 34.65 34.65 34.65 34.65 34.65 34.65
10/28/2020 00:00 to 23:10 34.65 34.65 34.64 34.65 34.65 34.65
10/27/2020 23:00 to 22:10 34.65 34.65 34.65 34.65 34.65 34.64
10/27/2020 22:00 to 21:10 34.63 34.65 34.66 34.64 34.61 34.64
10/27/2020 21:00 to 20:10 34.65 34.66 34.66 34.65 34.65 34.67
10/27/2020 20:00 to 19:10 34.67 34.67 34.66 34.66 34.65 34.66
10/27/2020 19:00 to 18:10 34.64 34.65 34.63 34.63 34.65 34.66
10/27/2020 18:00 to 17:10 34.65 34.66 34.67 34.66 34.66 34.67
10/27/2020 17:00 to 16:10 34.66 34.66 34.66 34.66 34.66 34.66
10/27/2020 16:00 to 15:10 34.65 34.67 34.67 34.66 34.66 34.67
10/27/2020 15:00 to 14:10 34.65 34.65 34.66 34.67 34.65 34.65
10/27/2020 14:00 to 13:10 34.65 34.65 34.66 34.65 34.65 34.65
10/27/2020 13:00 to 12:10 34.65 34.65 34.65 34.65 34.65 34.65
10/27/2020 12:00 to 11:10 34.65 34.65 34.65 34.65 34.65 34.65
10/27/2020 11:00 to 10:10 34.65 34.65 34.65 34.65 34.65 34.65
10/27/2020 10:00 to 9:10 34.65 34.65 34.65 34.65 34.65 34.65
10/27/2020 09:00 to 8:10 34.65 34.65 34.64 34.65 34.65 34.65
10/27/2020 08:00 to 7:10 34.64 34.65 34.65 34.65 34.65 34.65
10/27/2020 07:00 to 6:10 34.65 -- -- 34.65 34.64 34.65
10/27/2020 06:00 to 5:10 34.64 34.64 34.65 34.64 34.64 34.64
10/27/2020 05:00 to 4:10 34.64 34.64 34.64 34.64 34.64 34.64
10/27/2020 04:00 to 3:10 34.65 34.64 34.64 34.65 34.64 34.64
10/27/2020 03:00 to 2:10 34.65 34.64 34.64 34.64 34.64 34.65
10/27/2020 02:00 to 1:10 34.64 34.65 34.64 34.64 34.64 34.64
10/27/2020 01:00 to 0:10 34.64 34.64 34.63 34.64 34.64 34.64